Stations météo

réclame
Mon MeteoGroup
P11-B, Pays-Bas (6203): Température de l'air & dewpoint: 08.07.2020 05:00:00 - 14.07.2020 05:00:00 (CEST)P11-B, Pays-Bas (6203): Vitesse du vent & gusts: 08.07.2020 05:00:00 - 14.07.2020 05:00:00 (CEST)P11-B, Pays-Bas (6203): Direction du vent: 08.07.2020 05:00:00 - 14.07.2020 05:00:00 (CEST)P11-B, Pays-Bas (6203): reduced air pressure: 08.07.2020 05:00:00 - 14.07.2020 05:00:00 (CEST)P11-B, Pays-Bas (6203): visibility: 08.07.2020 05:00:00 - 14.07.2020 05:00:00 (CEST)
Date & Time tt [°C] td [°C] ff [km/h] ff [knt] fx [km/h] fx [knt] dd ppp [hPa] vv [km]
14.07.2020 05:00:00 16,5 15,4 16 9 22 12 - 1016,0 10
14.07.2020 04:00:00 16,7 15,3 15 8 18 10 W 1016,3 10
14.07.2020 03:00:00 16,8 14,9 13 7 14 8 W 1016,8 10
14.07.2020 02:00:00 16,7 15,3 8 4 14 8 W 1017,3 10
14.07.2020 01:00:00 16,9 15,4 13 7 25 14 WNW 1017,8 9
14.07.2020 00:00:00 16,9 15,2 26 14 32 18 - 1018,2 10
13.07.2020 23:00:00 17,0 14,7 26 14 29 16 SW 1018,2 10
13.07.2020 22:00:00 17,4 13,8 28 15 29 16 SSW 1018,5 10
13.07.2020 21:00:00 17,4 13,5 28 15 32 18 SSW 1018,6 10
13.07.2020 20:00:00 17,2 13,2 22 12 29 16 SSW 1019,3 40
13.07.2020 19:00:00 17,3 12,9 22 12 29 16 SSW 1019,8 37
13.07.2020 18:00:00 17,3 12,8 24 13 25 14 SSW 1020,4 10
13.07.2020 17:00:00 17,3 12,1 24 13 29 16 SSW 1021,2 10
13.07.2020 16:00:00 17,2 12,3 24 13 25 14 - 1021,9 10
13.07.2020 15:00:00 16,9 12,7 26 14 29 16 SSW 1022,2 10
13.07.2020 14:00:00 16,7 13,2 24 13 25 14 SSW 1023,1 10
13.07.2020 13:00:00 16,6 13,2 26 14 25 14 SW 1023,7 10
13.07.2020 12:00:00 16,4 12,8 22 12 25 14 - 1024,2 10
13.07.2020 11:00:00 16,4 12,1 21 11 25 14 - 1024,4 10
13.07.2020 10:00:00 16,5 12,1 21 11 22 12 SSW 1024,8 10
13.07.2020 09:00:00 16,3 12,6 21 11 22 12 S 1025,0 10
13.07.2020 08:00:00 16,4 12,2 16 9 18 10 SSW 1025,1 10
13.07.2020 07:00:00 16,3 11,9 15 8 18 10 SSW 1025,3 10
13.07.2020 06:00:00 16,3 11,8 16 9 18 10 S 1025,5 10
13.07.2020 05:00:00 16,3 12,1 14 8 14 8 S 1025,6 45
13.07.2020 04:00:00 16,5 12,1 9 5 14 8 SSE 1026,3 10
13.07.2020 03:00:00 16,2 12,0 11 6 11 6 SE 1026,6 10
13.07.2020 02:00:00 16,0 11,0 8 4 11 6 ESE 1026,9 10
13.07.2020 01:00:00 15,9 10,3 8 4 11 6 E 1027,4 10
13.07.2020 00:00:00 15,9 9,8 8 4 11 6 ENE 1027,4 10
12.07.2020 23:00:00 16,0 10,4 9 5 7 4 E 1027,8 10
12.07.2020 22:00:00 16,0 10,1 4 2 7 4 ENE 1027,9 10
12.07.2020 21:00:00 16,1 9,9 5 3 7 4 E 1027,7 10
12.07.2020 20:00:00 16,0 9,7 8 4 11 6 ESE 1028,0 10
12.07.2020 19:00:00 15,9 10,2 8 4 11 6 SE 1028,4 10
12.07.2020 18:00:00 15,9 9,4 5 3 7 4 SE 1028,7 10
12.07.2020 17:00:00 15,8 9,7 4 2 7 4 - 1029,0 10
12.07.2020 16:00:00 16,0 10,6 4 2 7 4 - 1029,5 10
12.07.2020 15:00:00 15,9 10,2 4 2 7 4 - 1029,7 10
12.07.2020 14:00:00 15,6 10,5 5 3 7 4 - 1030,0 10
12.07.2020 13:00:00 15,5 10,5 4 2 11 6 - 1030,0 10
12.07.2020 12:00:00 15,3 10,7 2 1 7 4 W 1029,9 10
12.07.2020 11:00:00 15,1 10,6 4 2 7 4 - 1029,7 10
12.07.2020 10:00:00 15,0 11,1 4 2 7 4 - 1029,5 10
12.07.2020 09:00:00 15,2 10,6 8 4 11 6 - 1029,2 10
12.07.2020 08:00:00 14,7 10,5 4 2 7 4 - 1028,7 10
12.07.2020 07:00:00 14,7 11,2 5 3 7 4 WNW 1028,4 10
12.07.2020 06:00:00 14,7 11,1 5 3 7 4 WNW 1028,1 10
12.07.2020 05:00:00 14,5 11,1 5 3 7 4 NW 1028,0 10
12.07.2020 04:00:00 14,5 10,9 8 4 11 6 W 1028,0 10
12.07.2020 03:00:00 14,6 10,7 5 3 11 6 NW 1028,2 10
12.07.2020 02:00:00 14,6 10,6 5 3 11 6 NNW 1028,3 10
12.07.2020 01:00:00 14,5 10,8 5 3 11 6 - 1028,2 10
12.07.2020 00:00:00 14,6 10,8 8 4 14 8 N 1028,2 10
11.07.2020 23:00:00 14,7 11,2 5 3 14 8 N 1028,1 10
11.07.2020 22:00:00 - - - - - - - 1027,7 -
11.07.2020 21:00:00 - - - - - - - - -
11.07.2020 20:00:00 14,8 10,6 16 9 22 12 NNW 1027,3 10
11.07.2020 19:00:00 15,2 10,9 16 9 22 12 NNW 1027,1 10
11.07.2020 18:00:00 15,1 10,8 16 9 22 12 NNW 1026,9 10
11.07.2020 17:00:00 15,3 10,9 14 8 18 10 NNW 1026,7 40
11.07.2020 16:00:00 15,3 11,0 15 8 22 12 NW 1026,4 10
11.07.2020 15:00:00 15,2 11,3 14 8 22 12 NW 1026,2 33
11.07.2020 14:00:00 15,4 11,6 15 8 18 10 W 1025,9 10
11.07.2020 13:00:00 15,3 11,7 16 9 18 10 W 1025,5 10
11.07.2020 12:00:00 15,4 12,2 16 9 - - WNW 1024,9 10
11.07.2020 11:00:00 15,0 12,0 13 7 - - - - -
11.07.2020 10:00:00 15,4 10,9 8 4 11 6 WNW 1024,1 10
11.07.2020 09:00:00 15,2 10,0 9 5 14 8 WNW 1023,5 10
11.07.2020 08:00:00 15,0 9,8 4 2 11 6 WNW 1022,9 44
11.07.2020 07:00:00 14,8 10,5 4 2 4 2 - 1022,7 10
11.07.2020 06:00:00 14,1 9,8 4 2 25 14 WNW 1022,3 19
11.07.2020 05:00:00 15,0 10,7 4 2 11 6 - 1021,8 10
11.07.2020 04:00:00 14,9 10,7 11 6 14 8 - 1021,7 10
11.07.2020 03:00:00 14,8 9,8 11 6 14 8 W 1021,6 48
11.07.2020 02:00:00 14,6 9,6 11 6 18 10 W 1021,3 10
11.07.2020 01:00:00 14,6 9,9 9 5 14 8 - 1021,0 10
11.07.2020 00:00:00 14,7 9,9 8 4 11 6 - 1020,9 10
10.07.2020 23:00:00 14,7 9,6 9 5 11 6 - 1020,5 10
10.07.2020 22:00:00 14,8 9,4 5 3 11 6 - 1020,0 10
10.07.2020 21:00:00 14,8 9,2 2 1 7 4 W 1019,8 10
10.07.2020 20:00:00 14,7 8,6 5 3 7 4 NNW 1019,4 10
10.07.2020 19:00:00 15,2 9,9 5 3 11 6 NW 1019,0 10
10.07.2020 18:00:00 15,5 9,2 9 5 18 10 NNW 1018,9 10
10.07.2020 17:00:00 15,0 9,6 8 4 11 6 NW 1018,3 10
10.07.2020 16:00:00 14,9 9,7 11 6 18 10 NNW 1017,8 10
10.07.2020 15:00:00 14,7 9,4 11 6 18 10 NW 1017,2 10
10.07.2020 14:00:00 15,0 8,6 18 10 22 12 NNW 1016,5 10
10.07.2020 13:00:00 15,0 9,1 15 8 25 14 NW 1015,9 10
10.07.2020 12:00:00 15,0 10,0 22 12 - - NNW 1014,9 10
10.07.2020 11:00:00 14,2 9,8 29 16 32 18 NNW 1013,9 10
10.07.2020 10:00:00 14,1 10,1 37 20 40 21 N 1012,9 10
10.07.2020 09:00:00 14,3 10,9 34 18 43 23 - 1011,8 10
10.07.2020 08:00:00 14,0 12,4 21 11 29 16 - 1011,0 10
10.07.2020 07:00:00 14,5 11,4 24 13 32 18 - 1010,4 10
10.07.2020 06:00:00 14,3 12,5 16 9 32 18 N 1009,6 10
10.07.2020 05:00:00 13,9 13,1 18 10 43 23 N 1009,1 9
10.07.2020 04:00:00 14,5 13,3 26 14 40 21 - 1008,7 10
10.07.2020 03:00:00 14,6 13,9 31 17 36 19 NNE 1008,7 10
10.07.2020 02:00:00 15,3 14,9 9 5 22 12 - 1008,4 4,3
10.07.2020 01:00:00 15,5 15,1 13 7 14 8 NNW 1008,8 3,3
10.07.2020 00:00:00 16,0 15,1 5 3 18 10 NW 1009,1 10
09.07.2020 23:00:00 16,2 15,9 22 12 25 14 WSW 1009,2 8
09.07.2020 22:00:00 16,4 15,9 28 15 29 16 SW 1009,1 8
09.07.2020 21:00:00 16,3 15,9 31 17 36 19 SW 1009,3 7
09.07.2020 20:00:00 16,4 15,9 37 20 40 21 WSW 1009,8 9
09.07.2020 19:00:00 16,3 15,8 41 22 43 23 WSW 1010,2 6
09.07.2020 18:00:00 16,1 15,8 37 20 40 21 WSW 1010,6 4,1
09.07.2020 17:00:00 16,0 15,7 39 21 47 25 WSW 1011,0 2,5
09.07.2020 16:00:00 16,2 15,6 41 22 40 21 SW 1011,0 9
09.07.2020 15:00:00 16,4 15,5 35 19 43 23 - 1010,9 9
09.07.2020 14:00:00 16,4 15,5 37 20 40 21 SW 1011,1 10
09.07.2020 13:00:00 16,4 15,4 41 22 43 23 SW 1010,7 10
09.07.2020 12:00:00 16,4 15,3 44 24 47 25 WSW 1010,5 10
09.07.2020 11:00:00 16,4 15,3 40 21 50 27 WSW 1010,6 13
09.07.2020 10:00:00 16,3 15,7 48 26 47 25 SW 1010,4 10
09.07.2020 09:00:00 16,3 15,8 44 24 47 25 SW 1010,5 4,3
09.07.2020 08:00:00 16,2 15,9 42 23 47 25 SW 1010,3 5
09.07.2020 07:00:00 16,3 15,9 44 24 47 25 SW 1010,6 5
09.07.2020 06:00:00 16,4 16,1 37 20 36 19 SW 1011,0 6
09.07.2020 05:00:00 16,4 15,9 35 19 36 19 SW 1011,4 9
09.07.2020 04:00:00 16,0 15,8 22 12 29 16 SSW 1011,8 10
09.07.2020 03:00:00 15,8 15,5 16 9 22 12 SSW 1012,6 6
09.07.2020 02:00:00 16,0 15,6 16 9 18 10 - 1013,3 10
09.07.2020 01:00:00 16,0 15,7 15 8 18 10 SSE 1013,9 10
09.07.2020 00:00:00 15,7 15,3 21 11 22 12 E 1014,4 10
08.07.2020 23:00:00 15,5 15,0 21 11 18 10 E 1014,8 10
08.07.2020 22:00:00 15,3 14,6 18 10 18 10 E 1015,0 10
08.07.2020 21:00:00 15,2 14,2 18 10 22 12 ENE 1015,1 10
08.07.2020 20:00:00 15,1 14,2 18 10 22 12 ENE 1015,4 10
08.07.2020 19:00:00 14,7 13,5 18 10 22 12 ENE 1015,3 45
08.07.2020 18:00:00 14,6 13,2 22 12 25 14 ENE 1015,4 47
08.07.2020 17:00:00 14,1 13,3 22 12 29 16 ENE 1015,6 8
08.07.2020 16:00:00 14,0 13,4 28 15 29 16 NE 1015,4 7
08.07.2020 15:00:00 14,1 13,7 28 15 29 16 ENE 1015,2 1,8
08.07.2020 14:00:00 14,1 13,5 24 13 29 16 ENE 1014,9 2,3
08.07.2020 13:00:00 14,1 13,7 22 12 22 12 ENE 1014,6 4,7
08.07.2020 12:00:00 13,8 13,4 18 10 22 12 ENE 1014,6 3,5
08.07.2020 11:00:00 14,0 13,4 11 6 11 6 ENE 1014,4 7
08.07.2020 10:00:00 14,0 12,8 2 1 7 4 - 1014,5 10
08.07.2020 09:00:00 13,8 12,5 5 3 11 6 - 1014,1 7
08.07.2020 08:00:00 14,0 12,1 11 6 18 10 SW 1014,0 10
08.07.2020 07:00:00 14,2 12,5 13 7 18 10 SW 1014,3 10
08.07.2020 06:00:00 14,4 12,2 13 7 14 8 WSW 1014,2 10
08.07.2020 05:00:00 14,3 11,8 16 9 18 10 WSW 1014,7 10

tt = Température de l'air
td = dewpoint
ff = Vitesse du vent
fx = gusts
dd = Direction du vent
ppp = reduced air pressure
vv = visibility

stations d'obs. à proximité